Theta_e
291 292 292 291 291 291 290 291 288 290 290 295 298 299 302 303 303 303 304 306 308 309 311 313 313 315 315 314 315 317 315 314 316 317 316 316 316 319 321 323 326 329 331 332
288 291 292 290 292 292 292 292 291 292 292 298 300 302 302 302 303 303 306 307 308 309 311 312 313 314 315 317 317 317 316 314 315 315 313 313 314 316 318 319 323 327 329 331
285 290 290 286 290 292 293 295 294 290 295 299 299 301 302 304 305 305 307 307 308 310 312 315 315 317 317 317 318 317 316 315 314 314 312 312 314 314 314 316 322 325 327 331
285 288 278 290 297 297 293 294 297 298 299 300 301 302 303 305 306 304 304 307 309 309 312 313 314 314 315 315 315 315 314 314 313 312 311 311 312 311 311 315 320 323 326 330
284 284 288 291 296 296 292 293 300 298 300 300 302 302 300 304 306 306 307 308 309 311 312 313 312 314 314 315 314 314 311 312 312 312 310 310 310 308 309 311 318 322 326 330
288 282 279 292 298 300 298 289 301 300 299 299 300 294 297 305 306 307 308 308 309 310 310 311 312 313 311 310 310 310 310 311 311 311 310 309 309 309 310 315 318 323 326 331
285 284 288 298 300 302 287 290 301 300 300 301 297 300 304 306 305 307 307 307 307 307 307 309 311 313 311 311 310 311 311 310 309 310 310 309 308 308 309 314 318 321 324 330
289 285 283 300 299 292 297 302 301 300 301 299 301 302 303 305 304 305 304 305 305 304 305 307 308 309 308 307 310 310 309 308 309 309 309 310 309 310 313 317 318 319 321 327
291 292 302 302 300 303 301 300 300 300 301 301 299 300 302 301 302 303 303 303 303 302 303 305 306 307 305 306 307 307 307 306 308 309 310 312 312 313 314 317 317 317 319 327
294 297 298 298 301 301 301 300 300 300 301 301 299 300 300 301 301 301 301 302 301 300 300 302 304 304 305 305 307 307 306 306 307 308 310 313 314 315 315 315 316 316 319 328
293 296 295 296 298 299 300 301 300 301 299 299 299 299 299 299 299 300 299 300 300 299 299 301 303 304 305 306 306 305 305 306 307 309 310 311 313 314 316 318 315 321 327 330
287 294 291 293 297 299 299 298 298 298 296 297 296 295 296 295 296 297 297 298 297 297 298 298 300 301 304 306 306 306 306 307 308 309 311 312 313 315 298 303 305 305 310 325
292 294 294 296 301 301 298 296 297 295 294 294 294 294 294 293 294 296 296 296 296 297 298 299 300 301 304 306 307 307 307 307 309 310 315 315 313 313 309 303 299 298 303 305
297 299 294 297 295 300 298 298 296 294 294 294 293 293 293 292 294 294 295 296 297 297 298 299 300 301 304 306 307 309 311 305 315 319 319 317 316 322 325 324 318 313 300 304
296 296 296 299 300 296 297 296 292 291 291 291 293 292 292 292 292 293 295 296 297 297 298 299 300 302 306 308 311 313 315 316 317 322 324 322 325 324 324 320 313 308 307 301
295 297 300 299 295 295 297 294 291 289 290 290 290 291 291 292 293 294 295 296 294 294 296 298 299 302 306 310 313 314 316 306 308 324 324 326 325 323 321 320 319 318 315 310
292 294 296 296 296 296 295 294 292 291 290 289 288 289 290 291 291 292 293 295 295 295 297 298 301 306 309 310 310 311 319 322 303 327 325 326 326 324 324 323 319 316 314 315
297 300 301 299 299 296 295 294 294 293 291 290 289 288 289 289 289 290 290 292 294 296 300 302 302 302 303 305 307 312 318 322 325 326 326 325 326 326 324 322 319 317 317 309
300 300 301 301 302 298 297 296 294 294 292 289 288 287 289 289 289 289 288 291 291 292 294 296 294 294 297 301 302 310 318 325 323 323 324 313 324 326 322 323 322 321 321 320
299 300 301 301 302 299 297 298 295 293 293 290 288 286 286 286 286 286 288 289 290 290 291 291 291 293 297 303 298 308 318 325 323 324 326 326 326 324 322 313 322 322 321 320
297 298 299 300 301 300 299 298 297 293 293 291 287 286 285 285 285 285 286 285 288 289 288 290 298 311 307 312 306 318 327 325 327 326 326 325 322 321 322 322 320 318 316 314
296 296 298 299 300 301 301 300 298 295 293 292 289 286 285 285 285 285 286 285 286 286 290 295 297 292 311 302 327 329 327 328 327 326 325 324 322 320 319 318 315 312 309 306
295 295 296 298 299 300 301 301 298 295 294 293 289 286 285 285 285 284 283 287 287 287 292 293 291 291 293 327 329 328 327 326 324 322 321 322 320 318 314 311 310 307 300 298
293 293 294 297 300 300 298 300 300 296 296 295 293 290 285 284 286 287 288 287 286 288 290 288 291 292 301 322 323 322 321 319 316 315 311 303 311 309 307 304 300 298 295 292
293 293 294 295 296 297 299 301 301 295 297 295 293 292 289 287 285 286 287 287 286 287 289 288 288 292 301 306 310 312 311 310 308 306 306 304 301 301 299 298 295 294 292 291
294 292 293 294 294 295 297 298 298 295 297 293 293 291 289 287 286 286 287 286 287 286 288 288 288 291 295 297 298 301 302 301 300 298 297 296 295 294 293 292 290 289 289 289
294 291 292 292 293 294 295 296 298 295 296 294 291 292 289 288 286 285 285 285 286 285 286 287 287 287 289 291 292 293 293 294 293 293 292 291 290 290 289 288 287 287 287 286
Wind_Speed
20 21 22 24 26 24 22 23 18 21 21 23 18 14 17 16 15 15 20 38 18 9 8 7 9 9 10 11 11 8 7 8 7 8 8 9 13 15 14 16 16 16 16 17
22 19 23 24 24 25 25 24 23 21 24 20 18 19 18 21 21 19 22 16 13 5 8 10 9 8 9 7 9 9 10 11 10 10 11 12 13 16 15 17 18 18 16 19
16 18 19 20 20 17 20 21 17 19 22 16 18 16 15 6 9 9 16 7 12 19 8 7 10 8 8 9 9 9 10 11 11 12 13 14 14 15 18 18 17 19 17 19
13 12 12 5 13 17 8 17 17 18 17 16 19 12 14 28 7 10 15 14 13 12 13 12 11 12 13 13 14 14 14 13 13 13 13 14 13 14 18 18 18 16 16 19
4 7 18 23 10 12 10 21 13 14 15 1 9 7 9 25 16 15 17 16 15 14 14 12 12 14 15 15 15 18 14 13 11 11 13 15 14 17 19 18 19 17 17 19
5 5 6 8 13 3 9 15 17 21 20 19 20 14 12 22 23 22 18 14 15 16 16 19 14 14 15 18 18 18 14 12 11 12 12 12 14 17 16 18 19 15 16 18
8 10 9 9 16 14 10 10 23 22 23 22 18 16 19 18 18 19 19 19 18 18 17 17 14 11 12 14 14 11 12 11 11 13 15 14 14 14 17 18 18 15 17 17
5 4 4 12 7 12 10 17 17 20 20 18 19 22 20 19 19 19 21 22 22 20 20 20 16 16 16 15 14 13 14 16 15 14 11 12 17 18 19 18 16 14 15 16
5 7 14 17 16 14 16 17 20 23 24 22 22 21 27 22 22 20 21 19 19 20 22 19 18 15 17 15 16 16 15 16 15 15 14 16 16 15 13 15 12 12 12 14
11 7 16 21 14 18 20 20 22 18 23 23 24 23 22 20 20 19 19 18 17 19 21 20 17 17 17 18 17 15 16 16 14 14 16 15 13 13 13 14 12 13 13 14
15 12 25 9 19 21 20 23 21 24 22 25 26 24 24 21 22 20 19 17 14 15 16 17 16 16 16 16 15 16 15 15 15 13 16 16 14 14 15 13 14 12 14 14
5 17 10 16 19 28 22 20 23 26 25 26 23 22 20 18 16 16 16 16 14 16 17 18 18 19 17 16 17 17 15 13 14 16 17 17 13 10 2 19 18 19 16 14
8 13 17 20 20 16 19 22 20 22 20 18 17 15 19 17 16 17 15 16 15 16 17 16 17 18 17 17 17 17 18 16 17 21 15 13 15 8 8 9 19 14 21 20
14 11 11 16 16 20 22 19 20 20 17 15 16 15 16 16 16 15 15 14 15 17 17 15 16 18 16 18 17 18 20 14 9 4 9 12 11 10 8 9 13 12 18 17
13 16 19 19 16 19 20 20 20 16 17 14 12 14 14 16 14 15 15 16 15 15 16 14 14 17 15 15 16 17 14 11 5 5 7 9 13 11 11 12 13 11 11 14
19 20 18 18 16 21 19 21 19 18 16 16 16 14 16 15 15 13 14 13 13 12 14 14 15 15 15 14 12 11 9 11 6 5 5 6 9 13 12 12 12 12 11 10
15 17 18 16 17 14 16 17 17 16 17 16 16 16 16 15 14 12 12 13 12 14 14 14 15 12 13 13 13 8 7 3 3 6 5 9 11 13 12 12 12 11 10 9
16 17 15 16 19 11 13 16 18 19 15 16 18 15 15 14 14 14 13 13 13 13 11 9 9 10 12 14 12 7 5 5 5 7 8 10 11 13 13 13 13 13 11 6
16 17 17 20 20 10 13 13 15 20 15 17 16 17 16 14 14 14 12 12 12 12 10 12 18 16 16 16 10 7 3 3 3 6 8 7 10 12 13 14 13 13 11 8
16 18 20 20 21 14 16 16 11 18 15 15 16 15 16 15 15 14 11 9 8 8 13 15 15 14 15 15 11 9 6 5 6 8 9 10 11 14 13 12 14 11 12 11
17 17 20 20 19 17 12 15 12 16 19 12 16 16 16 13 13 12 11 11 17 17 19 20 9 5 13 12 11 10 8 7 7 10 11 11 13 12 12 13 13 12 12 11
14 15 18 19 19 18 14 15 14 15 18 16 15 15 17 13 12 10 6 8 11 19 12 9 9 10 5 10 6 6 10 10 11 10 11 11 11 13 12 12 12 12 12 11
13 15 16 18 19 17 18 16 14 15 19 19 14 17 16 13 10 12 14 17 12 17 12 12 17 12 4 4 8 10 11 12 12 10 10 11 12 12 12 11 12 12 11 10
12 14 15 16 17 15 19 19 16 16 15 16 13 16 14 14 13 11 12 16 22 19 14 17 19 22 10 8 10 11 12 12 11 11 11 12 12 12 12 12 12 11 12 13
10 12 14 16 15 12 17 18 14 15 15 16 14 14 17 11 10 12 13 14 21 18 15 22 22 17 12 12 11 11 11 10 11 11 11 12 12 12 12 12 12 12 11 11
10 9 10 14 12 12 12 13 10 12 11 14 12 12 14 13 12 13 12 16 15 17 14 13 13 12 12 12 12 12 11 11 12 11 12 12 13 13 13 13 12 12 13 13
8 9 9 11 10 11 12 12 12 12 11 11 12 12 13 11 14 15 17 14 13 13 12 12 12 13 11 11 12 12 11 11 13 12 12 12 11 12 13 13 13 13 12 12
Wind_Direction
282 288 286 289 282 276 226 231 246 262 259 268 274 263 224 210 234 264 234 253 225 246 229 241 242 237 224 226 244 249 248 266 269 283 280 280 282 276 268 268 264 264 262 266
280 294 292 287 292 289 277 275 276 261 267 279 272 263 259 217 239 232 251 318 321 249 270 257 254 265 281 278 242 232 236 243 251 257 269 270 273 275 267 263 262 257 260 264
286 294 297 291 279 273 292 294 282 279 288 298 313 333 338 307 289 330 313 276 259 256 314 357 345 340 317 302 282 262 253 250 251 259 265 274 268 270 279 266 261 255 256 262
284 299 283 282 331 298 320 276 293 342 12 333 317 328 346 312 208 191 220 300 335 324 320 325 323 312 304 294 284 279 262 255 253 255 266 272 270 273 278 278 269 256 259 261
253 248 280 289 355 2 8 314 39 351 332 6 245 308 273 269 2 344 333 326 318 306 299 281 288 290 283 280 278 273 269 270 271 277 280 271 267 274 269 270 272 261 255 258
256 260 280 360 4 356 241 274 6 340 328 325 318 300 300 337 331 324 314 299 292 289 280 281 264 250 258 268 267 258 263 269 275 270 266 258 256 258 266 268 264 264 262 260
242 253 265 28 344 333 295 329 326 323 317 319 318 312 313 293 290 285 289 301 306 304 303 297 284 287 301 298 285 293 290 286 275 269 260 254 252 255 260 263 259 260 265 265
230 251 282 15 342 349 314 309 323 326 331 322 321 309 295 298 304 307 307 309 308 308 302 296 318 318 295 285 286 285 284 277 272 265 246 247 240 249 248 249 252 255 260 269
252 303 327 1 343 337 348 332 340 331 320 316 308 305 309 308 302 297 304 303 309 307 299 297 295 290 289 286 288 280 271 266 265 262 261 243 242 248 256 246 249 251 246 247
329 326 343 342 358 339 335 329 317 309 302 296 293 285 291 310 305 298 293 291 302 291 287 288 286 284 283 280 271 276 275 270 267 258 258 249 243 245 244 241 233 237 240 230
298 311 335 338 327 319 312 310 311 302 310 315 313 313 309 301 299 300 300 299 286 282 290 290 290 284 282 282 280 274 271 268 265 256 253 249 243 244 238 226 217 236 235 183
278 316 293 290 305 302 307 321 322 321 320 309 305 297 301 297 299 295 292 294 293 287 284 284 285 283 284 282 276 272 268 265 258 253 245 228 223 207 335 239 236 213 172 154
300 297 282 280 288 323 318 318 334 323 303 303 302 303 302 296 293 292 293 287 283 284 284 285 286 285 284 280 273 270 261 250 259 258 252 206 182 192 200 89 94 111 111 101
297 316 308 297 306 307 322 332 326 310 308 307 303 296 290 290 292 289 285 286 283 279 278 281 282 283 286 282 283 280 282 268 287 299 121 121 153 163 164 129 91 74 50 96
331 311 288 287 306 344 322 330 323 317 316 310 308 306 303 301 299 299 295 290 289 287 285 287 282 279 281 285 291 298 302 312 7 310 78 118 118 113 105 89 89 97 96 72
312 309 312 332 342 327 344 334 333 326 321 319 316 311 309 302 298 298 297 296 295 293 292 291 285 285 279 275 281 299 299 310 343 123 121 120 113 109 105 106 109 112 112 114
313 314 316 334 318 348 351 344 332 324 325 324 318 316 312 309 306 304 304 297 294 285 280 272 272 281 284 299 298 299 320 297 341 149 124 123 118 114 119 114 108 108 117 128
291 300 323 323 326 346 348 358 339 334 332 330 323 318 316 317 313 316 312 301 295 292 284 295 293 297 294 289 292 295 322 305 206 139 123 121 118 121 112 108 114 117 117 123
324 322 332 332 337 4 347 342 346 340 340 330 328 329 324 320 318 314 302 300 310 310 302 301 291 285 271 260 251 268 244 203 112 111 122 112 109 109 107 116 121 126 130 112
333 334 339 332 335 356 354 348 351 350 339 348 334 333 333 327 318 311 310 308 282 290 288 285 281 269 249 245 215 239 239 159 145 139 125 111 108 103 110 115 125 122 98 97
340 339 333 337 336 350 0 353 348 358 340 343 340 336 330 322 321 326 335 334 333 323 308 291 275 292 194 201 171 211 149 153 151 123 116 114 114 119 114 103 98 97 96 94
339 335 331 334 338 339 359 358 354 4 348 344 345 341 335 348 340 350 344 320 314 321 315 338 351 346 82 130 163 141 128 120 115 114 118 117 111 99 102 99 99 98 93 89
342 338 335 333 335 347 346 350 358 6 357 349 4 354 348 341 343 350 350 347 348 345 2 6 0 19 55 103 111 107 114 106 98 92 91 98 102 106 102 98 94 95 94 92
352 348 341 337 332 347 346 350 348 6 4 357 1 359 350 352 352 2 349 344 357 5 9 4 22 15 36 74 71 81 83 86 89 92 90 88 94 97 96 91 89 86 91 91
3 344 348 347 344 345 342 339 347 2 4 1 5 3 2 1 0 348 356 359 4 13 15 14 17 21 32 49 55 66 74 78 82 85 87 90 92 92 91 92 92 95 94 91
21 356 352 349 346 345 333 334 353 360 14 4 3 10 4 356 359 3 6 8 12 16 21 17 16 21 33 42 53 57 67 73 77 78 85 87 90 92 95 95 95 92 92 93
18 5 352 355 354 345 334 330 347 11 24 16 4 12 11 2 356 2 7 13 11 17 19 22 23 25 34 44 54 56 61 66 74 85 84 85 84 90 94 94 95 95 93 90